Riverton, WY

4:23 AM MDT on July 23, 2017 (GMT -0600)
Riverton Regional

Weather History for KRIW - February, 2013

Change the Weather History Date:

Monday, February 4, 2013

  Actual Average Record
Temperature  
Mean Temperature 35 °F 21 °F  
Max Temperature 50 °F 33 °F 51 °F (1999)
Min Temperature 20 °F 10 °F -10 °F (2014)
Degree Days  
Heating Degree Days 30 44  
Month to date heating degree days 135 176  
Since 1 July heating degree days 4556 4891  
Cooling Degree Days 0 0  
Month to date cooling degree days 0 0  
Year to date cooling degree days 0 0  
Moisture  
Dew Point 15 °F    
Average Humidity 47    
Maximum Humidity 68    
Minimum Humidity 25    
Precipitation  
Precipitation 0.00 in 0.01 in 0.26 in (2015)
Month to date precipitation 0.00 0.03  
Year to date precipitation 0.11 0.27  
Snow  
Snow 0.00 in - - ()
Month to date snowfall 0.0  
Since 1 July snowfall 10.0  
Snow Depth 0.00 in    
Sea Level Pressure  
Sea Level Pressure 29.91 in    
Wind  
Wind Speed 16 mph (WNW)    
Max Wind Speed 39 mph    
Max Gust Speed 49 mph    
Visibility 10 miles    
Events      
T = Trace of Precipitation, MM = Missing Value Source: NWS Daily Summary

Daily Weather History Graph

Daily Weather History Graph

Search for Another Location

Airport or City:

Trip Planner

Search our weather history database for the weather conditions in past years. The results will help you decide how hot, cold, wet, or windy it might be!

Date:

Astronomy

Feb. 04, 2013 Rise Set
Actual Time 7:25 AM MST 5:30 PM MST
Civil Twilight 6:55 AM MST 6:00 PM MST
Nautical Twilight 6:21 AM MST 6:34 PM MST
Astronomical Twilight 5:48 AM MST 7:07 PM MST
Moon 2:06 AM MST (2/4) 11:54 AM MST (2/4)
Length of Visible Light 11h 05m
Length of Day
10h 05m
Last Quarter, 36% of the Moon is Illuminated
Feb 4
Last Quarter
Feb 10
New
Feb 17
First Quarter
Feb 25
Full
Mar 4
Last Quarter

Hourly Weather History & Observations

Time (MST) Temp. Windchill Dew Point Humidity Pressure Visibility Wind Dir Wind Speed Gust Speed Precip Events Conditions
12:53 AM 21.0 °F 14.6 °F 12.0 °F 68% 30.07 in 10.0 mi ENE 4.6 mph - N/A   Clear
1:53 AM 23.0 °F 18.4 °F 12.9 °F 65% 30.02 in 10.0 mi SE 3.5 mph - N/A   Clear
3:53 AM 24.8 °F 16.9 °F 12.2 °F 59% 29.91 in 10.0 mi West 6.9 mph - N/A   Mostly Cloudy
4:53 AM 24.1 °F - 12.0 °F 60% 29.99 in 10.0 mi Calm Calm - N/A   Clear
5:53 AM 30.0 °F 19.5 °F 12.9 °F 49% 29.98 in 10.0 mi West 13.8 mph - N/A   Clear
6:43 AM 33.8 °F 21.6 °F 12.2 °F 41% 29.90 in 10.0 mi WNW 23.0 mph 35.7 mph N/A   Clear
6:53 AM 34.0 °F 23.0 °F 12.0 °F 40% 29.98 in 10.0 mi WNW 18.4 mph 32.2 mph N/A   Clear
7:53 AM 37.0 °F 26.7 °F 10.9 °F 34% 29.96 in 10.0 mi WNW 19.6 mph 25.3 mph N/A   Clear
8:53 AM 39.0 °F 36.8 °F 12.0 °F 33% 29.93 in 10.0 mi SW 3.5 mph - N/A   Clear
9:53 AM 36.0 °F 33.3 °F 14.0 °F 41% 29.97 in 10.0 mi Variable 3.5 mph 19.6 mph N/A   Clear
10:53 AM 46.9 °F - 12.9 °F 25% 29.91 in 10.0 mi WNW 25.3 mph 31.1 mph N/A   Clear
11:07 AM 48.2 °F - 12.2 °F 24% 29.90 in 10.0 mi NNW 12.7 mph 27.6 mph N/A   Clear
11:16 AM 39.2 °F 32.0 °F 15.8 °F 39% 29.90 in 10.0 mi East 11.5 mph 19.6 mph N/A   Clear
11:53 AM 48.9 °F - 15.1 °F 26% 29.89 in 10.0 mi WNW 23.0 mph 35.7 mph N/A   Clear
12:53 PM 43.0 °F - 18.0 °F 37% 29.90 in 10.0 mi Calm Calm - N/A   Clear
1:26 PM 48.2 °F - 15.8 °F 27% 29.85 in 10.0 mi NW 21.9 mph 31.1 mph N/A   Clear
1:53 PM 44.1 °F 39.5 °F 18.0 °F 35% 29.89 in 10.0 mi ENE 8.1 mph - N/A   Clear
2:53 PM 46.9 °F - 17.1 °F 30% 29.85 in 10.0 mi NW 36.8 mph 48.3 mph N/A   Clear
3:53 PM 48.0 °F - 17.1 °F 29% 29.85 in 10.0 mi WNW 33.4 mph 40.3 mph N/A   Clear
4:53 PM 45.0 °F 34.6 °F 17.1 °F 33% 29.85 in 10.0 mi WNW 34.5 mph 49.5 mph N/A   Clear
5:53 PM 43.0 °F 32.7 °F 17.1 °F 35% 29.83 in 10.0 mi WNW 28.8 mph 39.1 mph N/A   Clear
6:53 PM 42.1 °F 32.8 °F 17.1 °F 37% 29.86 in 10.0 mi NW 21.9 mph 36.8 mph N/A   Clear
7:53 PM 41.0 °F 31.4 °F 18.0 °F 40% 29.86 in 10.0 mi WNW 21.9 mph 32.2 mph N/A   Clear
8:53 PM 41.0 °F 30.7 °F 18.0 °F 40% 29.87 in 10.0 mi WNW 25.3 mph 32.2 mph N/A   Clear
9:53 PM 41.0 °F 31.1 °F 18.0 °F 40% 29.88 in 10.0 mi West 23.0 mph 29.9 mph N/A   Clear
10:53 PM 36.0 °F - 17.1 °F 46% 29.88 in 10.0 mi Calm Calm - N/A   Clear
11:53 PM 35.1 °F 32.2 °F 18.0 °F 50% 29.88 in 10.0 mi SSE 3.5 mph - N/A   Clear